Location: Isle of Man Observatory
(54.1776°N, 4.6264°W)
Time: 07:38:38
(UTC+02:00)

Envisat - Pass Details

Date: 16 May 2026
Orbit: 761 x 763 km, 98.4° (Epoch: 11 June)

Event Time Altitude Azimuth Distance (km) Brightness Sun altitude
Rises 03:33:39 0° 26° (NNE) 3,238 8.1 -14.8°
Reaches altitude 10° 03:36:54 10° 48° (NE) 2,305 6.5 -14.7°
Maximum altitude 03:39:58 16° 86° (E) 1,918 5.4 -14.5°
Drops below altitude 10° 03:43:02 10° 123° (ESE) 2,294 5.3 -14.3°
Enters shadow 03:46:02 - 144° (SE) 3,148 5.9 -14.2°
